Regional Weather Roundup
Issued by NWS

Home | Current Version | Previous Version | Text Only | Print | Product List | Glossary On
Versions: 1 2 3 4 5 6 7 8 9 10 11 12 13 14 15 16 17 18 19 20 21 22 23 24 25 26 27 28 29 30 31 32 33 34 35 36 37 38 39 40 41 42 43 44 45 46 47 48 49 50
360
ASUS43 KBIS 270402
RWRND

NORTH DAKOTA REGIONAL WEATHER ROUNDUP
NATIONAL WEATHER SERVICE BISMARCK ND
1100 PM CDT SUN MAR 26 2017

NOTE: "FAIR" INDICATES FEW OR NO CLOUDS BELOW 12,000 FEET WITH NO
SIGNIFICANT WEATHER AND/OR OBSTRUCTIONS TO VISIBILITY.


NDZ001>003-009>011-017-270500-
NORTHWEST NORTH DAKOTA

CITY           SKY/WX    TMP DP  RH WIND       PRES   REMARKS
WILLISTON      MOCLDY    38  27  64 N8        29.90R
MINOT          FAIR      42  38  85 E9        29.88S
MINOT AFB      CLOUDY    41  38  87 SE6       29.87F
$$

NDZ018>021-031>035-040>046-270500-
SOUTHWEST NORTH DAKOTA

CITY           SKY/WX    TMP DP  RH WIND       PRES   REMARKS
BISMARCK       FAIR      39  34  82 SE7       29.92R
DICKINSON      MOCLDY    44  30  57 S7        29.87S
GARRISON         N/A     45  37  73 S9        29.88R
HETTINGER ARPT CLEAR     39  34  82 S3        29.92R
$$

NDZ004>008-012>016-024-026-027-054-270500-
NORTHEAST NORTH DAKOTA

CITY           SKY/WX    TMP DP  RH WIND       PRES   REMARKS
GRAND FORKS    CLOUDY    40  39  97 E5        29.95S
GRND FRKS AFB  FOG       30  30 100 CALM      29.95S VSB 1/4
DEVILS LAKE    FAIR      34  34 100 SE6       29.93S FOG
$$

NDZ022-023-025-028>030-036>039-047>053-270500-
SOUTHEAST NORTH DAKOTA

CITY           SKY/WX    TMP DP  RH WIND       PRES   REMARKS
FARGO          CLOUDY    36  35  96 CALM      29.94S
JAMESTOWN      FAIR      38  35  89 SE5       29.91S
$$





USA.gov is the U.S. government's official web portal to all federal, state and local government web resources and services.